{"data":{"norad_id":68463,"intl_designator":"2026-067AZ","name":"GARAI-B (UNAMUNO)","alt_names":[],"object_type":"PAYLOAD","status":"ACTIVE","operator":null,"country":"SPN","launch_date":"2026-03-30","launch_site_code":"AFWTR","launch_vehicle":null,"mission":null,"orbit_class":"UNKNOWN","rcs_meters":null,"size_class":null,"mass_kg":null,"dimensions":null,"purposes":[],"wikipedia_slug":null,"has_3d_model":false,"image_url":null,"decayed_at":null,"tle_current":{"epoch":"2026-05-24T19:55:56.260128Z","epoch_age_seconds":86371,"freshness":"FRESH","line1":"1 68463U 26067AZ  26144.83051227  .00006332  00000+0  31921-3 0  9995","line2":"2 68463  97.4520 103.5816 0004835 129.5683 230.5978 15.17491393  8391","mean_motion":15.17491393,"eccentricity":0.0004835,"inclination_deg":97.452,"raan_deg":103.5816,"arg_perigee_deg":129.5683,"mean_anomaly_deg":230.5978,"bstar":0.00031921,"rev_number":839,"period_min":94.893454199644,"perigee_km":510.0931838372,"apogee_km":516.757324537,"semimajor_km":6891.5622541871,"source":"CELESTRAK","updated_at":"2026-05-25T13:38:07.846560Z"}}}